Wind_Speed
13 14 14 13 14 14 13 13 13 12 14 16 18 20 21 22 22 21 21 22 23 24 26 28 30 33 35 37 38 39 39 40 41 43 44 45 46 46 46 45 45 45 43 42
13 14 14 13 14 14 14 15 14 14 16 18 20 22 23 23 22 22 22 23 24 25 28 30 32 34 37 39 39 40 40 41 42 44 45 46 46 47 46 46 46 45 43 41
13 15 15 15 15 14 14 14 14 15 18 20 22 23 23 23 22 22 23 24 25 27 29 32 34 36 39 40 41 41 41 42 43 45 46 47 47 47 47 46 45 44 42 40
13 13 14 13 14 13 13 13 14 17 19 21 23 24 23 23 22 23 23 25 26 29 31 33 35 37 39 41 41 42 42 43 44 46 47 48 48 47 47 46 45 43 42 40
13 13 11 11 13 13 13 14 16 18 20 22 23 23 23 23 23 24 25 26 28 30 32 34 36 38 40 41 41 42 43 44 45 47 48 48 48 47 46 46 44 43 42 41
15 14 12 11 13 13 14 14 17 19 21 22 23 23 23 24 24 25 26 28 30 32 34 35 37 39 40 41 42 43 44 45 46 48 48 48 47 46 46 45 44 43 42 40
17 16 13 14 15 15 16 17 18 19 21 23 24 25 25 25 26 27 28 30 31 33 35 37 38 40 41 42 43 44 45 46 48 49 48 48 47 47 46 45 43 42 41 39
19 18 18 18 18 18 19 19 20 22 23 24 25 26 27 27 28 29 30 31 33 35 37 38 40 41 42 43 44 45 46 48 49 49 49 48 47 47 45 44 43 41 40 38
22 21 21 21 21 21 22 22 23 24 25 26 26 27 28 29 30 31 32 33 35 37 39 40 41 42 43 44 46 47 48 49 50 49 49 48 47 45 44 43 41 39 38 37
26 24 24 24 24 24 25 26 26 26 27 28 28 29 30 31 32 33 34 36 37 39 40 42 43 43 44 46 48 50 51 51 50 49 49 48 47 45 43 42 40 38 37 35
29 27 27 26 26 27 27 28 29 29 29 30 31 31 31 32 34 35 36 38 39 40 42 43 44 45 46 49 51 52 52 52 51 50 48 47 46 44 42 41 38 36 35 34
30 29 30 29 28 29 29 30 31 31 31 32 32 32 33 34 35 37 38 40 41 42 43 44 45 47 49 51 53 54 54 53 51 49 47 45 44 42 41 39 37 35 34 33
32 32 32 31 31 31 31 32 33 33 33 33 34 34 35 35 36 38 39 40 41 42 44 46 47 49 51 54 55 56 55 53 50 47 45 44 42 39 38 37 36 35 33 32
33 34 34 34 34 34 34 35 35 36 36 36 36 36 36 37 38 39 40 41 42 44 46 48 49 51 53 55 56 55 54 52 49 45 43 42 40 38 36 34 33 33 32 31
33 34 35 36 36 37 37 38 38 38 38 39 39 39 39 40 41 41 41 44 46 47 49 51 53 54 55 56 56 54 52 49 46 44 41 39 38 36 34 33 32 31 31 30
35 36 37 38 39 40 40 40 40 41 41 41 42 43 43 43 43 45 46 47 48 49 51 53 55 57 57 56 55 53 50 47 44 41 39 37 36 34 33 32 31 30 30 29
38 38 39 40 41 42 42 42 42 42 43 44 44 45 46 47 48 48 50 51 51 51 53 55 57 58 57 56 53 50 48 45 42 39 37 35 34 33 32 31 29 29 28 27
39 40 41 42 42 43 43 43 44 45 45 46 48 49 50 51 51 52 53 54 54 54 55 57 58 58 56 54 51 48 45 43 39 37 35 33 32 31 30 29 27 27 26 26
40 41 42 42 43 44 44 45 46 48 49 51 52 54 54 55 55 56 57 57 57 57 57 57 57 56 53 51 49 46 43 40 37 35 33 31 30 29 28 27 26 25 24 24
42 43 44 45 46 46 47 49 51 52 54 55 56 57 58 59 59 60 60 59 58 58 57 56 55 53 51 48 46 43 40 38 35 33 31 30 29 27 26 24 24 23 22 23
45 46 47 48 49 51 52 54 55 57 58 59 60 61 61 61 62 62 61 60 58 57 56 54 52 50 48 45 42 40 38 35 33 31 29 27 26 25 24 23 22 21 21 21
49 50 51 52 54 55 57 58 60 61 62 62 63 63 63 63 63 62 61 60 58 56 53 51 49 47 45 42 39 37 35 33 31 29 27 25 24 23 22 21 20 19 19 19
53 54 55 57 58 59 60 61 62 63 63 64 64 64 64 63 62 61 58 57 55 53 50 48 46 44 42 39 36 34 33 31 29 26 25 24 23 21 20 19 18 17 16 17
57 58 59 60 61 62 62 63 63 64 64 64 64 63 63 61 60 59 57 54 52 49 47 45 43 41 39 36 34 31 30 28 26 24 23 22 21 19 18 17 16 15 14 14
59 60 61 62 62 63 64 64 64 65 64 64 63 63 62 61 59 56 54 51 49 47 45 42 41 38 36 33 30 28 26 25 23 22 21 20 18 17 16 15 14 13 12 12
60 61 62 63 63 64 65 65 65 65 65 64 63 61 60 58 55 53 51 48 46 43 41 39 36 34 32 29 27 26 24 22 21 20 18 17 16 15 14 13 12 10 10 10
60 61 62 63 63 64 64 64 64 63 62 61 59 57 55 52 50 48 45 43 41 39 36 34 32 30 28 26 25 24 22 21 19 18 16 15 14 14 13 12 10 9 8 8
Wind_Direction
274 274 275 278 280 283 287 292 298 303 306 308 309 313 318 321 323 324 326 326 328 331 332 333 334 334 335 335 334 333 333 332 332 331 331 330 330 329 327 326 325 322 319 316
278 279 282 284 285 287 290 294 298 298 300 303 307 312 317 320 321 323 324 325 327 329 331 332 333 333 334 333 333 332 332 331 331 331 330 329 329 328 327 326 324 322 319 317
278 280 286 290 289 293 296 296 295 295 298 303 307 313 316 318 320 321 322 324 326 328 329 330 331 331 331 331 331 331 331 331 330 330 330 329 328 328 327 326 325 323 320 317
278 281 289 295 292 294 297 298 295 296 300 304 308 313 316 317 318 319 321 323 324 326 328 329 329 329 330 330 330 330 330 330 330 330 329 329 329 328 327 326 325 323 321 318
277 281 287 290 290 294 298 301 299 301 302 304 308 312 315 317 318 319 320 321 323 325 326 327 327 328 328 329 330 330 330 330 329 329 329 328 328 328 327 327 326 324 322 320
275 280 284 288 287 294 295 299 298 300 301 305 309 313 316 317 317 317 319 320 322 323 324 324 325 326 327 329 329 330 330 329 329 329 329 328 328 328 328 327 327 326 324 322
274 279 287 291 291 295 299 301 301 302 304 307 310 313 314 315 315 316 317 319 320 321 322 322 323 325 326 328 329 329 329 329 329 329 328 328 328 328 328 328 327 326 325 324
275 280 287 289 293 295 297 300 303 304 306 307 309 310 311 312 313 314 315 316 318 320 321 322 323 325 326 328 329 329 328 327 328 328 328 328 328 328 328 328 328 327 327 326
278 282 287 289 292 295 297 300 302 304 305 305 307 308 308 309 311 313 314 315 317 319 321 322 324 325 326 327 328 328 328 328 328 328 329 329 329 329 329 329 329 328 329 329
279 282 284 286 290 293 296 298 300 301 302 303 304 305 305 307 309 311 313 314 316 319 321 322 324 325 326 327 327 327 327 328 328 327 328 330 329 329 329 330 329 329 330 331
275 278 280 283 287 289 292 295 297 298 299 300 301 302 303 305 308 310 312 314 316 319 321 322 323 325 326 326 327 327 327 327 327 327 327 329 329 329 329 330 330 330 331 332
273 276 279 283 285 288 291 292 293 294 295 297 298 300 302 304 307 309 311 313 315 318 320 321 322 323 324 324 325 326 326 326 327 327 327 328 329 329 330 331 331 331 333 334
275 277 280 283 286 287 288 289 290 291 293 295 297 298 300 302 303 306 308 310 313 316 317 318 319 320 322 323 324 325 326 326 327 327 328 328 328 329 330 331 331 332 333 334
275 278 281 283 284 285 286 287 288 290 292 294 295 297 298 299 302 303 306 307 311 313 314 315 316 317 319 321 322 324 325 326 327 327 327 328 329 329 329 331 331 332 333 334
274 276 278 279 281 282 284 286 288 289 290 292 293 294 296 299 301 301 303 306 308 310 310 311 312 314 316 319 321 322 323 324 326 327 327 328 329 329 329 331 332 333 334 335
275 275 276 278 280 282 284 285 287 288 289 290 291 293 294 298 300 298 300 303 305 306 306 307 309 311 313 316 318 320 321 323 325 326 327 327 328 329 329 330 331 332 334 336
274 275 277 279 281 282 284 285 285 286 288 289 290 291 292 294 296 296 297 300 302 303 304 306 307 308 311 313 316 317 318 320 322 324 325 326 327 327 328 329 330 332 334 336
274 276 278 279 281 282 284 284 284 285 286 287 288 289 290 291 292 293 296 298 300 301 303 304 305 306 309 311 313 314 315 317 319 321 323 324 325 326 326 328 329 332 334 337
279 280 280 281 281 281 282 283 283 284 285 286 287 287 288 289 291 293 294 295 297 298 300 301 303 305 307 308 309 311 312 314 315 317 319 321 322 323 324 325 327 330 333 337
281 281 282 282 283 283 283 283 283 284 285 286 287 288 289 290 292 293 295 296 298 299 299 300 301 303 304 305 306 307 309 310 311 312 314 317 319 320 322 323 324 327 331 336
281 281 282 283 283 284 284 284 284 285 286 287 288 290 291 292 293 294 295 296 296 297 298 298 299 300 301 302 302 303 304 305 307 308 310 312 315 317 319 320 322 325 329 334
283 283 283 283 284 284 284 285 286 287 288 289 289 290 291 292 293 294 295 295 295 295 296 296 296 297 297 298 298 298 299 300 302 303 305 307 309 312 315 317 319 322 327 333
283 284 284 284 285 285 286 286 287 288 289 290 290 291 292 292 293 293 293 293 293 293 293 293 293 293 294 294 294 294 295 296 297 298 299 300 304 307 311 314 316 319 324 330
285 285 286 286 287 287 288 288 289 290 290 291 292 292 292 292 292 292 293 292 292 291 290 290 290 290 290 289 289 289 290 291 292 292 293 295 297 301 305 309 313 317 321 327
286 287 288 288 289 290 290 291 292 292 293 293 293 293 293 293 293 292 292 291 290 289 288 287 286 286 285 283 283 284 285 286 286 288 291 291 292 295 298 302 307 311 316 324
288 289 290 291 291 292 293 293 294 294 294 294 294 294 294 293 293 292 291 289 288 286 284 282 280 279 278 277 277 277 279 280 281 285 287 288 288 290 293 296 300 304 310 318
290 291 292 293 294 294 295 296 296 296 296 296 296 295 295 294 293 292 290 288 285 282 279 277 275 272 270 269 269 271 271 272 275 279 282 283 285 286 287 290 291 294 297 306
Height
5850 5849 5849 5848 5848 5846 5845 5844 5843 5842 5840 5838 5836 5833 5830 5827 5824 5821 5818 5815 5812 5808 5804 5800 5795 5791 5785 5780 5775 5769 5763 5757 5750 5743 5737 5730 5723 5715 5708 5701 5694 5687 5680 5674
5847 5846 5845 5845 5844 5842 5841 5840 5839 5838 5836 5834 5831 5828 5825 5822 5819 5817 5813 5810 5807 5803 5799 5795 5790 5785 5780 5774 5768 5762 5756 5750 5743 5736 5729 5722 5714 5707 5699 5691 5684 5677 5670 5663
5845 5843 5842 5841 5840 5839 5838 5836 5835 5834 5832 5829 5826 5823 5820 5817 5815 5812 5809 5805 5802 5798 5794 5789 5784 5779 5774 5768 5762 5756 5750 5743 5736 5729 5721 5713 5706 5698 5690 5682 5674 5667 5659 5653
5841 5841 5840 5840 5836 5835 5834 5833 5831 5829 5827 5824 5821 5818 5815 5813 5810 5807 5804 5800 5797 5792 5788 5784 5779 5773 5768 5762 5756 5749 5743 5736 5728 5721 5713 5705 5697 5689 5681 5673 5665 5657 5649 5642
5837 5836 5836 5836 5833 5832 5831 5829 5827 5824 5822 5819 5816 5813 5811 5808 5805 5802 5798 5795 5791 5787 5783 5778 5773 5767 5762 5756 5749 5742 5735 5728 5721 5713 5705 5696 5688 5680 5672 5663 5655 5647 5639 5632
5833 5832 5832 5833 5830 5828 5828 5826 5823 5820 5817 5814 5811 5808 5806 5803 5799 5796 5793 5789 5785 5781 5777 5772 5767 5761 5755 5749 5742 5735 5728 5720 5713 5705 5697 5688 5680 5671 5662 5654 5645 5637 5630 5622
5828 5828 5828 5827 5825 5824 5823 5821 5818 5814 5811 5809 5806 5803 5801 5797 5794 5790 5787 5783 5779 5775 5771 5766 5760 5754 5748 5741 5735 5728 5720 5713 5705 5697 5688 5680 5671 5662 5654 5645 5637 5629 5621 5613
5823 5823 5824 5821 5819 5818 5817 5814 5811 5809 5806 5803 5800 5797 5794 5791 5788 5784 5781 5777 5773 5768 5764 5758 5753 5747 5741 5734 5727 5720 5713 5705 5697 5688 5680 5671 5663 5654 5645 5637 5629 5620 5612 5605
5818 5819 5817 5815 5813 5812 5810 5808 5806 5803 5800 5798 5794 5791 5788 5784 5781 5778 5774 5770 5766 5761 5756 5751 5745 5739 5733 5726 5719 5712 5704 5696 5688 5679 5671 5663 5654 5646 5637 5629 5621 5613 5605 5598
5810 5810 5809 5808 5806 5805 5803 5801 5799 5797 5794 5791 5788 5785 5782 5778 5775 5771 5767 5763 5759 5754 5748 5743 5737 5731 5724 5718 5711 5704 5696 5688 5679 5671 5662 5654 5646 5638 5630 5622 5614 5606 5599 5591
5802 5803 5801 5801 5799 5798 5796 5794 5792 5790 5787 5785 5782 5778 5775 5771 5768 5764 5760 5755 5750 5745 5740 5734 5728 5722 5716 5710 5703 5695 5687 5679 5671 5663 5654 5646 5638 5630 5623 5615 5607 5600 5593 5586
5795 5796 5794 5794 5792 5791 5789 5787 5785 5782 5780 5777 5774 5771 5768 5764 5760 5756 5751 5746 5742 5737 5731 5726 5720 5714 5708 5701 5694 5687 5679 5670 5662 5654 5646 5639 5631 5623 5615 5608 5601 5594 5587 5580
5788 5787 5786 5785 5784 5782 5781 5779 5776 5774 5772 5769 5766 5763 5759 5756 5752 5747 5743 5738 5733 5728 5723 5717 5712 5706 5699 5692 5685 5678 5670 5662 5654 5646 5639 5631 5624 5617 5610 5602 5595 5588 5582 5575
5780 5779 5777 5776 5775 5773 5771 5769 5767 5765 5762 5760 5757 5754 5750 5746 5742 5738 5733 5729 5724 5719 5714 5708 5702 5696 5690 5683 5676 5669 5661 5653 5646 5638 5631 5624 5617 5611 5604 5598 5591 5584 5577 5571
5771 5770 5768 5766 5765 5763 5761 5759 5757 5755 5752 5750 5747 5744 5740 5737 5733 5728 5723 5718 5714 5709 5704 5698 5692 5686 5680 5674 5667 5659 5652 5645 5638 5631 5624 5618 5611 5605 5598 5592 5586 5580 5573 5567
5761 5760 5758 5756 5755 5753 5751 5749 5747 5745 5742 5739 5736 5733 5730 5726 5722 5717 5713 5708 5704 5699 5694 5688 5682 5676 5670 5664 5657 5650 5644 5637 5630 5624 5617 5611 5605 5599 5593 5587 5581 5575 5569 5563
5751 5750 5748 5747 5745 5742 5741 5738 5736 5734 5731 5728 5725 5721 5718 5714 5710 5706 5701 5697 5692 5688 5683 5677 5671 5664 5659 5653 5647 5641 5635 5629 5623 5617 5611 5605 5600 5594 5588 5582 5577 5571 5566 5560
5742 5740 5738 5736 5734 5732 5729 5727 5724 5721 5718 5715 5711 5708 5704 5700 5697 5693 5689 5684 5680 5675 5670 5664 5658 5653 5647 5642 5637 5631 5626 5620 5615 5610 5604 5599 5594 5589 5583 5578 5573 5568 5562 5557
5730 5728 5726 5724 5722 5719 5717 5714 5711 5707 5704 5701 5697 5693 5689 5686 5682 5679 5675 5670 5666 5662 5657 5651 5645 5641 5636 5631 5626 5621 5617 5612 5607 5603 5598 5593 5588 5583 5579 5574 5569 5564 5559 5554
5717 5715 5712 5710 5707 5705 5702 5699 5696 5692 5688 5685 5682 5678 5675 5671 5667 5663 5660 5656 5651 5646 5642 5637 5633 5628 5624 5620 5615 5611 5607 5603 5599 5595 5591 5587 5583 5578 5574 5570 5565 5561 5556 5552
5703 5701 5698 5696 5693 5689 5686 5683 5680 5676 5672 5669 5666 5662 5658 5654 5650 5646 5643 5640 5636 5631 5627 5623 5619 5615 5611 5607 5604 5601 5597 5594 5591 5587 5584 5581 5577 5573 5569 5565 5561 5558 5553 5549
5689 5686 5683 5680 5677 5674 5670 5666 5663 5659 5656 5652 5648 5644 5641 5637 5633 5630 5625 5622 5619 5615 5612 5608 5605 5602 5599 5596 5593 5590 5587 5585 5582 5580 5577 5574 5571 5568 5564 5561 5558 5554 5551 5547
5673 5670 5667 5664 5661 5657 5654 5650 5646 5642 5638 5634 5631 5627 5623 5619 5615 5612 5610 5606 5602 5599 5596 5593 5591 5588 5586 5584 5581 5579 5577 5575 5574 5572 5570 5568 5565 5563 5560 5557 5554 5551 5548 5545
5657 5653 5650 5646 5643 5639 5635 5632 5628 5623 5620 5615 5611 5607 5604 5601 5597 5593 5590 5588 5585 5583 5581 5578 5576 5575 5573 5571 5570 5569 5568 5566 5565 5564 5563 5561 5559 5557 5555 5552 5550 5547 5545 5542
5639 5636 5632 5628 5624 5620 5616 5612 5608 5604 5600 5596 5592 5587 5583 5580 5578 5575 5573 5570 5568 5566 5565 5564 5562 5561 5560 5560 5559 5559 5559 5558 5557 5557 5556 5554 5553 5552 5550 5548 5546 5544 5542 5540
5622 5618 5613 5609 5605 5601 5596 5592 5588 5584 5580 5576 5572 5568 5564 5560 5558 5556 5554 5552 5551 5550 5549 5548 5548 5548 5548 5549 5549 5550 5550 5550 5550 5550 5549 5548 5547 5546 5545 5543 5542 5540 5539 5538
5604 5600 5595 5591 5586 5582 5577 5572 5568 5564 5559 5555 5552 5548 5544 5541 5539 5537 5536 5534 5534 5533 5533 5534 5535 5536 5537 5539 5540 5541 5542 5543 5543 5543 5543 5543 5542 5541 5540 5539 5538 5537 5536 5535